Regional Weather Roundup
Issued by NWS

Home | Current Version | Previous Version | Text Only | Print | Product List | Glossary On
Versions: 1 2 3 4 5 6 7 8 9 10 11 12 13 14 15 16 17 18 19 20 21 22 23 24 25 26 27 28 29 30 31 32 33 34 35 36 37 38 39 40 41 42 43 44 45 46 47 48 49 50
000
ASUS44 KOUN 262010
RWROK

WEATHER ROUNDUP FOR OKLAHOMA
NATIONAL WEATHER SERVICE NORMAN OK
300 PM CDT SUN MAR 26 2017

NOTE: "FAIR" INDICATES FEW OR NO CLOUDS BELOW 12,000 FEET WITH NO
      SIGNIFICANT WEATHER AND/OR OBSTRUCTIONS TO VISIBILITY.

OKZ001>007-009>012-014-015-017-262100-
NORTHWEST OKLAHOMA AND THE PANHANDLE

CITY           SKY/WX    TMP DP  RH WIND       PRES   REMARKS
GAGE           SUNNY     74  39  28 S10G24    29.67F
GUYMON         PTSUNNY   57  43  59 N23G35    29.75R
ENID/WOODRING  CLOUDY    70  50  49 SE21G28   29.72F
$$

OKZ016-021>023-033>039-044-045-262100-
SOUTHWEST OKLAHOMA

CITY           SKY/WX    TMP DP  RH WIND       PRES   REMARKS
LAWTON/REGL    CLOUDY    76  58  53 SW15G23   29.73F
LAWTON/FT SILL CLOUDY    75  59  57 S13G25    29.71F
FREDERICK      CLOUDY    77  52  41 SW18      29.69F
CLINTON        SUNNY     73  47  39 S24G32    29.69F
HOBART         PTSUNNY   74  51  44 S23       29.71F
ALTUS AFB      CLOUDY    76  39  26 SW18      29.70F
$$

OKZ018>020-024>031-262100-
CENTRAL OKLAHOMA

CITY           SKY/WX    TMP DP  RH WIND       PRES   REMARKS
OKLAHOMA CITY  CLOUDY    72  52  49 S24G35    29.73F
OKC/WILEY POST MOSUNNY   72  52  49 S23G38    29.74F
OKC/TINKER AFB CLOUDY    71  54  54 SE14G23   29.73F
STILLWATER     MOSUNNY   73  46  38 SE23G31   29.75F
GUTHRIE        CLOUDY    70  49  47 SE16G28   29.73F
$$

OKZ008-013-054>072-262100-
NORTHEAST OKLAHOMA

CITY           SKY/WX    TMP DP  RH WIND       PRES   REMARKS
TULSA          CLOUDY    68  50  52 E12       29.81F
TULSA/JONES    CLOUDY    70  47  43 SE14      29.81F
PONCA CITY     MOSUNNY   69  45  41 SE17      29.76F
BARTLESVILLE   MOSUNNY   68  47  46 SE12      29.85F
MUSKOGEE       CLOUDY    70  52  52 SE13      29.85F
$$

OKZ032-040>043-046>053-073>077-262100-
SOUTH CENTRAL/SOUTHEAST OKLAHOMA

CITY           SKY/WX    TMP DP  RH WIND       PRES   REMARKS
ARDMORE/DWNTWN CLOUDY    77  54  44 SW13G24   29.76S
MCALESTER      CLOUDY    77  48  35 S12G28    29.82F
$$





USA.gov is the U.S. government's official web portal to all federal, state and local government web resources and services.